This is the latest recevied weather packets stored in our database for station/object K0WOI. If no packets are shown the sender has not sent any weather packets the latest 10 day(s).
| Time | Temp. | Humidity | Pressure | Rain* | Wind** | Luminosity | Snow |
|---|---|---|---|---|---|---|---|
| 1777953571 | 10.56° C | 66% | 1006.7 hPa | 0 mm | - | 0 W/m² | - |
| 1777953267 | 11.11° C | 65% | 1007 hPa | 0 mm | - | 0 W/m² | - |
| 1777952965 | 11.67° C | 58% | 1006.9 hPa | 0 mm | - | 0 W/m² | - |
| 1777952661 | 12.22° C | 53% | 1007.3 hPa | 0 mm | - | 0 W/m² | - |
| 1777952358 | 12.78° C | 50% | 1007.1 hPa | 0 mm | - | 0 W/m² | - |
| 1777952055 | 12.78° C | 48% | 1007.4 hPa | 0 mm | - | 0 W/m² | - |
| 1777951753 | 13.33° C | 45% | 1007.1 hPa | 0 mm | - | 0 W/m² | - |
| 1777951450 | 13.33° C | 45% | 1006.6 hPa | 0 mm | - | 0 W/m² | - |
| 1777951146 | 13.33° C | 45% | 1006.3 hPa | 0 mm | - | 0 W/m² | - |
| 1777950843 | 13.33° C | 45% | 1006.3 hPa | 0 mm | - | 0 W/m² | - |
| 1777950540 | 13.33° C | 44% | 1006.5 hPa | 0 mm | - | 0 W/m² | - |
| 1777950236 | 13.33° C | 44% | 1006.3 hPa | 0 mm | - | 0 W/m² | - |
| 1777949931 | 13.33° C | 43% | 1006.2 hPa | 0 mm | - | 0 W/m² | - |
| 1777949629 | 13.33° C | 43% | 1005.8 hPa | 0 mm | - | 0 W/m² | - |
| 1777949328 | 13.33° C | 43% | 1005.9 hPa | 0 mm | - | 0 W/m² | - |
| 1777949025 | 13.33° C | 43% | 1005.6 hPa | 0 mm | - | 0 W/m² | - |
| 1777948722 | 13.89° C | 44% | 1005.7 hPa | 0 mm | - | 0 W/m² | - |
| 1777948419 | 13.89° C | 43% | 1005.8 hPa | 0 mm | - | 0 W/m² | - |
| 1777948116 | 13.89° C | 43% | 1006 hPa | 0 mm | - | 0 W/m² | - |
| 1777947813 | 13.89° C | 42% | 1006 hPa | 0 mm | - | 0 W/m² | - |
| 1777947511 | 14.44° C | 42% | 1006 hPa | 0 mm | - | 0 W/m² | - |
| 1777947207 | 14.44° C | 42% | 1005.5 hPa | 0 mm | - | 0 W/m² | - |
| 1777946903 | 14.44° C | 42% | 1005.4 hPa | 0 mm | - | 0 W/m² | - |
| 1777946599 | 14.44° C | 42% | 1005.4 hPa | 0 mm | - | 0 W/m² | - |
| 1777946296 | 14.44° C | 42% | 1005 hPa | 0 mm | - | 0 W/m² | - |
* Rain latest hour (hover to see other rain measurements)
** Current wind speed in m/s (hover to see current wind gust speed)